Simultaneous Nadir Overpasses (SNOs) Predictions

Prediction of SNOs between GOES-15 and NOAA-20 Satellite Orbit:

Table of predicted SNOs for the next 14.0 days since TLE Epoch: 1/20/2024
Index Date Time (GOES-15) GOES-15 Lat,Lon NOAA-20 Lat,Lon Distance(km) Time Diff (sec)
1 01/20/2024 21:11:47 -0.04, 61.61 -0.33, 62.98 155.77 80
2 01/22/2024 09:33:44 0.03, 61.76 -0.86, 57.68 464.60 80
3 01/23/2024 09:17:40 0.03, 61.78 0.12, 62.21 49.41 80
4 01/25/2024 21:20:44 -0.02, 61.73 0.06, 61.47 29.71 80
5 01/26/2024 20:59:21 -0.02, 61.75 -0.98, 66.00 483.74 80
6 01/28/2024 09:21:17 0.03, 61.90 -0.26, 60.70 137.45 80
7 01/29/2024 09:05:14 0.03, 61.93 0.78, 65.22 376.34 80
8 01/30/2024 21:27:02 -0.03, 61.85 0.42, 59.96 215.86 80
9 01/31/2024 21:05:39 -0.03, 61.87 -0.63, 64.48 297.35 80
10 02/02/2024 09:27:35 0.03, 62.04 -0.60, 59.18 324.99 80
